Weather History for KHWV - January, 2000

Change the Weather History Date:

Sunday, January 2, 2000

  Actual Average (KISP) Record (KISP)
Temperature  
Mean Temperature 44 °F 32 °F  
Max Temperature 54 °F 39 °F 57 °F (2000)
Min Temperature 33 °F 24 °F 8 °F (1999)
Degree Days  
Heating Degree Days 22 34  
Month to date heating degree days 67  
Since 1 July heating degree days 1994  
Cooling Degree Days 0 0  
Month to date cooling degree days 0  
Year to date cooling degree days 0  
Moisture  
Dew Point 40 °F    
Average Humidity 91    
Maximum Humidity 100    
Minimum Humidity 71    
Precipitation  
Precipitation 0.01 in 0.12 in 0.89 in (1987)
Month to date precipitation 0.24  
Year to date precipitation 0.24  
Snow  
Snow 0.00 in 0.30 in 4.70 in (2014)
Month to date snowfall 0.5  
Since 1 July snowfall 6.4  
Snow Depth -    
Sea Level Pressure  
Sea Level Pressure 30.17 in    
Wind  
Wind Speed 4 mph (South)    
Max Wind Speed 15 mph    
Max Gust Speed 23 mph    
Visibility 4 miles    
Events Fog    
T = Trace of Precipitation, MM = Missing Value Source: NWS Daily Summary

Daily Weather History Graph

Daily Weather History Graph

Search for Another Location

Airport or City:

Trip Planner

Search our weather history database for the weather conditions in past years. The results will help you decide how hot, cold, wet, or windy it might be!

Date:

Astronomy

Jan. 02, 2000 Rise Set
Actual Time 7:15 AM EST 4:34 PM EST
Civil Twilight 6:45 AM EST 5:05 PM EST
Nautical Twilight 6:10 AM EST 5:40 PM EST
Astronomical Twilight 5:37 AM EST 6:13 PM EST
Moon 3:25 AM EST (1/2) 2:00 PM EST (1/2)
Length of Visible Light 10h 20m
Length of Day
9h 18m
Waning Crescent, 14% of the Moon is Illuminated
Jan 2
Waning Crescent
Jan 6
New
Jan 14
First Quarter
Jan 20
Full
Jan 28
Last Quarter

Hourly Weather History & Observations

Time (EST) Temp. Windchill Dew Point Humidity Pressure Visibility Wind Dir Wind Speed Gust Speed Precip Events Conditions
12:22 AM 37.4 °F - 37.4 °F 100% 30.24 in 0.2 mi Calm Calm - N/A Fog Fog
12:43 AM 33.8 °F - 33.8 °F 100% 30.23 in 0.5 mi Calm Calm - N/A Fog Fog
12:56 AM 34.0 °F - 34.0 °F 100% 30.23 in 0.2 mi Calm Calm - N/A Fog Fog
1:39 AM 35.6 °F - 33.8 °F 93% 30.24 in 0.5 mi Calm Calm - N/A Fog Fog
1:56 AM 35.1 °F - 34.0 °F 96% 30.24 in 0.2 mi Calm Calm - N/A Fog Fog
2:56 AM 36.0 °F 32.1 °F 35.1 °F 97% 30.24 in 0.2 mi South 4.6 mph - 0.01 in Fog Fog
3:47 AM 37.4 °F - 37.4 °F 100% 30.23 in 0.5 mi Calm Calm - N/A Fog Fog
3:56 AM 37.0 °F 34.5 °F 36.0 °F 96% 30.22 in 0.8 mi South 3.5 mph - N/A   Overcast
4:15 AM 37.4 °F - 37.4 °F 100% 30.22 in 1.5 mi Calm Calm - N/A   Overcast
4:27 AM 37.4 °F - 37.4 °F 100% 30.21 in 0.8 mi Calm Calm - N/A   Mostly Cloudy
4:41 AM 37.4 °F - 35.6 °F 93% 30.22 in 1.0 mi Calm Calm - N/A   Scattered Clouds
4:56 AM 35.1 °F - 35.1 °F 100% 30.22 in 0.5 mi Calm Calm - N/A Fog Fog
5:14 AM 35.6 °F - 35.6 °F 100% 30.22 in 0.5 mi Calm Calm - N/A Fog Fog
5:43 AM 35.6 °F - 33.8 °F 93% 30.22 in 1.5 mi Calm Calm - N/A   Overcast
5:56 AM 35.1 °F 32.2 °F 35.1 °F 100% 30.22 in 1.5 mi SSE 3.5 mph - N/A   Overcast
6:15 AM 35.6 °F 31.7 °F 35.6 °F 100% 30.21 in 2.5 mi SSE 4.6 mph - N/A   Overcast
6:34 AM 35.6 °F 32.8 °F 35.6 °F 100% 30.22 in 4.0 mi South 3.5 mph - N/A   Overcast
6:47 AM 35.6 °F 30.7 °F 35.6 °F 100% 30.22 in 1.8 mi SSE 5.8 mph - N/A   Overcast
6:56 AM 39.0 °F 35.7 °F 37.9 °F 96% 30.22 in 2.0 mi South 4.6 mph - N/A   Overcast
7:20 AM 44.6 °F 40.7 °F 42.8 °F 93% 30.21 in 4.0 mi South 6.9 mph - N/A   Overcast
7:56 AM 45.0 °F 41.8 °F 45.0 °F 100% 30.22 in 4.0 mi SSW 5.8 mph - N/A   Overcast
8:56 AM 46.9 °F - 46.0 °F 97% 30.22 in 6.0 mi SSW 5.8 mph - 0.00 in   Overcast
9:56 AM 50.0 °F - 48.0 °F 93% 30.21 in 8.0 mi South 11.5 mph - N/A   Mostly Cloudy
10:56 AM 50.0 °F - 46.0 °F 86% 30.19 in 9.0 mi South 11.5 mph - N/A   Mostly Cloudy
11:56 AM 52.0 °F - 46.9 °F 83% 30.14 in 10.0 mi SSW 11.5 mph - N/A   Scattered Clouds
12:56 PM 53.1 °F - 46.0 °F 77% 30.13 in 10.0 mi SSW 12.7 mph - N/A   Scattered Clouds
1:56 PM 54.0 °F - 46.0 °F 75% 30.10 in 9.0 mi South 15.0 mph - N/A   Clear
2:56 PM 53.1 °F - 44.1 °F 71% 30.08 in 8.0 mi SSW 11.5 mph - N/A   Clear
3:56 PM 50.0 °F - 44.1 °F 80% 30.07 in 7.0 mi SSW 13.8 mph - N/A   Clear
4:56 PM 48.9 °F - 44.1 °F 83% 30.07 in 8.0 mi SSW 10.4 mph - N/A   Clear
5:56 PM 48.9 °F - 45.0 °F 86% 30.06 in 7.0 mi SSW 10.4 mph - N/A   Clear
6:56 PM 50.0 °F - 44.1 °F 80% 30.05 in 9.0 mi SSW 13.8 mph 23.0 mph N/A   Clear
7:56 PM 50.0 °F - 44.1 °F 80% 30.04 in 9.0 mi SSW 13.8 mph 20.7 mph N/A   Clear
8:56 PM 50.0 °F - 44.1 °F 80% 30.04 in 9.0 mi SSW 12.7 mph - N/A   Clear
9:56 PM 52.0 °F - 45.0 °F 77% 30.04 in 10.0 mi SW 15.0 mph - N/A   Clear
10:56 PM 51.1 °F - 46.0 °F 83% 30.03 in 9.0 mi SSW 10.4 mph - N/A   Scattered Clouds
11:56 PM 50.0 °F - 46.0 °F 86% 30.01 in 8.0 mi SSW 10.4 mph - N/A   Mostly Cloudy